Location: Forst
(46.9333°N, 15.4333°E)
Time: 12:29:53
(UTC+00:00)

Daily predictions for brighter satellites

Satellite Brightness Start Highest point End
(mag) Time Altitude Azimuth Time Altitude Azimuth Time Altitude Azimuth
Cosmos 2360 Rocket 4.4 15:41:02 10° WNW 15:43:41 13° NW 15:46:22 10° N
USA 281 4.4 15:39:29 10° E 15:43:57 20° NE 15:48:25 10° N
Cosmos 2333 Rocket 4.0 15:39:40 10° W 15:44:12 24° NW 15:48:46 10° N
Cosmos 2219 Rocket 4.0 15:41:55 10° W 15:46:30 25° NW 15:51:05 10° N
Cosmos 2285 Rocket 4.1 15:41:53 10° NNW 15:48:14 58° ENE 15:54:28 10° SE
COSMO-SKYMED 1 4.5 15:47:19 10° ENE 15:48:59 12° E 15:50:38 10° ESE
TELKOM 3 3.8 15:47:07 10° W 15:49:57 43° N 15:52:23 10° ENE
COSMOS 2428 4.5 15:46:34 10° WSW 15:51:22 27° NW 15:56:10 10° N
CORIOLIS 4.5 15:47:13 10° SE 15:52:20 45° ENE 15:57:30 10° N
USA 267 4.0 15:47:42 10° ENE 15:53:37 38° N 15:59:32 10° WNW
X-37B 2.2 15:51:18 10° SW 15:54:03 27° SSE 15:56:47 10° E
PAYLOAD B 4.2 15:49:08 10° SSE 15:54:42 76° ENE 16:00:16 10° NNW
H-2A R/B 3.8 15:55:56 10° ENE 15:57:10 11° NE 15:58:24 10° NE
Cosmos 1805 Rocket 4.1 15:54:38 10° NNW 15:59:04 64° W 16:03:25 10° S
Meteor 1-4 Rocket 3.7 15:57:00 10° SE 15:59:54 23° E 16:02:46 10° NE
Cosmos 1356 3.7 15:57:12 10° NNW 16:00:38 73° W 16:04:02 10° S
Meteor 1-20 Rocket 4.3 15:56:44 10° N 16:02:35 63° ENE 16:08:19 10° SSE
Cosmos 1328 Rocket 4.1 15:59:01 10° SSE 16:02:59 38° E 16:07:02 10° NNE
Cosmos 2181 Rocket 4.2 15:56:57 10° SSE 16:03:08 54° E 16:09:17 10° NNE
BREEZE-M DEB (TANK) 4.4 15:58:59 10° W 16:03:12 75° N 16:18:26 11° E
Cosmos 1939 Rocket 4.0 16:00:50 10° ESE 16:03:46 21° ENE 16:06:45 10° NNE
Cosmos 389 Rocket 2.8 16:02:36 10° SSW 16:05:59 65° WNW 16:09:24 10° N
CZ-4 R/B 3.2 16:05:25 12° ENE 16:06:10 12° ENE 16:07:53 10° NE
Cosmos 2237 Rocket 3.2 16:01:00 10° SW 16:06:19 43° NW 16:11:44 10° NNE
Cosmos 1666 Rocket 3.5 16:02:02 10° N 16:06:28 74° E 16:10:55 10° SSE
NOAA 11 4.4 16:02:54 10° SE 16:08:04 47° ENE 16:13:15 10° N
Cosmos 44 4.0 16:02:57 10° NW 16:08:13 67° WSW 16:13:35 10° SSE
CZ-4B R/B 3.1 16:03:54 10° SSE 16:09:11 72° ENE 16:14:28 10° N
Cosmos 1602 4.3 16:06:16 10° N 16:09:55 36° ENE 16:13:31 10° SE
CZ-3B R/B 3.5 16:09:40 10° SSE 16:10:11 10° SE 16:10:40 10° SE
H-2A R/B 2.7 16:07:52 10° S 16:12:05 73° WSW 16:16:11 10° NNW
Cosmos 1943 4.3 16:10:18 10° SSE 16:14:41 23° ESE 16:18:07 14° ENE
Cosmos 2369 Rocket 2.4 16:10:13 10° NNW 16:15:44 48° NE 16:21:11 10° SE
ADEOS Rocket 3.9 16:09:18 10° N 16:17:03 73° WNW 16:24:41 10° SSW
Cosmos 1943 Rocket 2.1 16:11:48 10° NNW 16:17:23 75° ENE 16:22:58 10° SSE
NOAA 12 4.1 16:13:30 10° SSE 16:18:49 81° ENE 16:24:10 10° NNW
CENTAUR R/B 4.1 16:16:45 10° SE 16:19:22 13° ESE 16:20:30 12° E
CZ-2D R/B 4.4 16:18:12 10° ESE 16:21:11 22° ENE 16:24:11 10° NNE
H-2A R/B 2.0 16:17:11 10° NNE 16:21:26 89° E 16:25:45 10° SSW
Okean O Rocket 1.5 16:21:17 10° SSE 16:25:39 86° ENE 16:30:04 10° NNW
Cosmos 1782 3.0 16:23:01 10° SSE 16:26:49 46° E 16:30:39 10° NNE
Okean-O 3.8 16:24:00 10° ESE 16:27:24 22° ENE 16:30:49 10° NNE
Cosmos 1633 Rocket 3.2 16:26:19 10° NNW 16:30:42 76° W 16:35:01 10° S
ISS -2.9 16:28:24 10° WNW 16:31:33 35° N 16:32:58 24° NE
Cosmos 1933 3.6 16:28:28 10° SSW 16:32:30 71° W 16:36:35 10° N
Cosmos 2218 Rocket 4.0 16:30:58 10° N 16:37:10 90° E 16:43:20 10° S
SKYMED 2 4.2 16:34:31 16° NE 16:37:31 35° E 16:41:29 10° SSE
Cosmos 2366 rocket 3.9 16:31:55 10° N 16:38:09 88° E 16:44:17 10° S
ERS-2 2.5 16:36:10 19° NE 16:38:32 43° E 16:42:01 10° S
Cosmos 489 Rocket 4.4 16:37:08 10° S 16:43:18 73° ESE 16:49:32 10° NNE
Lacrosse 5 rocket 2.1 16:45:14 10° W 16:48:37 35° NNW 16:50:15 23° NNE
Cosmos 773 Rocket 4.3 16:43:51 10° SSW 16:49:06 69° WNW 16:54:26 10° NNE
Cosmos 371 Rocket 4.4 16:45:29 10° N 16:49:18 25° NE 16:49:18 25° NE
SL-23 DEB 4.1 16:46:14 10° SW 16:49:52 72° SSE 16:52:39 27° ENE
NOSS 3-2 (A) 3.9 16:46:36 10° S 16:51:39 36° ESE 16:54:01 26° ENE
FengYun 1-2 T 4.5 16:50:34 10° S 16:56:05 71° WSW 17:01:36 10° NNW
Feng Yun 1-1 Rocket 4.2 16:50:25 10° SSE 16:56:10 81° ENE 17:01:46 10° NNW
OE (NEXTSAT) 4.4 16:54:06 10° W 16:57:32 69° S 16:58:30 43° ESE
CZ-4B R/B 1.2 16:56:26 26° N 16:58:02 82° WNW 17:01:12 10° SSW
SL-16 R/B 3.2 16:54:03 10° SW 16:59:27 45° NW 17:04:53 10° NNE
USA 215 3.7 16:59:21 27° E 17:02:25 42° SE 17:08:33 10° SSW
BREEZE-M DEB (TANK) 2.3 17:01:42 10° WSW 17:03:26 50° W 17:03:26 50° W
Cosmos 1500 3.0 17:02:28 10° N 17:06:18 70° E 17:10:07 10° SSE
YAOGAN 1 2.9 17:09:19 42° NE 17:09:19 42° NE 17:12:56 10° N
USA 238 DEB 3.9 17:04:36 10° S 17:10:47 46° ESE 17:13:06 34° ENE
USA 238 3.9 17:04:42 10° S 17:10:53 45° ESE 17:13:10 34° ENE
Cosmos 1656 Rocket 3.5 17:05:40 10° NNW 17:11:20 71° ENE 17:16:52 10° SE
SL-24 DEB 4.1 17:07:10 10° N 17:11:57 83° E 17:16:38 10° S
MOS 1 Rocket 3.8 17:13:25 35° NE 17:15:09 46° E 17:20:17 10° S
STPSAT 2 (USA 217) 4.5 17:13:54 10° SSW 17:18:25 80° ESE 17:19:43 47° NE
Cosmos 2263 4.2 17:14:31 10° NNW 17:20:09 80° WSW 17:25:44 10° SSE
Cosmos 158 Rocket 3.8 17:15:17 10° S 17:20:09 58° ESE 17:20:55 52° ENE
Cosmos 1515 Rocket 4.2 17:16:21 10° SSW 17:20:40 57° WNW 17:25:03 10° N
CZ-2C R/B 2.7 17:15:54 10° SSE 17:20:50 70° ENE 17:25:38 10° N
Cosmos 1934 Rocket 4.1 17:15:54 10° N 17:22:06 51° ENE 17:28:12 10° SSE
SWAS 4.4 17:18:51 10° SSW 17:23:08 79° WNW 17:24:10 50° NNE
Cosmos 923 Rocket 3.9 17:18:22 10° S 17:23:31 65° ESE 17:24:50 47° NE
Cosmos 1238 Rocket 2.9 17:21:19 10° N 17:25:20 76° E 17:30:13 10° SSE
COSMO-SKYMED 1 2.6 17:23:06 24° N 17:25:40 76° WNW 17:29:59 10° SSW
USA 281 3.1 17:20:56 10° SE 17:27:27 72° ENE 17:34:01 10° NNW
CSL-04 Debris 4.2 17:27:30 48° E 17:28:21 53° ENE 17:33:40 10° N
SAR-Lupe-4 3.7 17:29:14 71° WNW 17:29:15 71° WNW 17:32:49 10° SSW
Nadezhda 3 Rocket 3.9 17:23:34 10° S 17:29:57 84° E 17:36:21 10° N
X-37B 1.9 17:27:14 10° WSW 17:29:28 39° SW 17:29:28 39° SW
Helios 1A Rocket 3.4 17:33:25 48° NNW 17:33:25 48° NNW 17:36:24 10° NNW
Meteor 2-6 Rocket 4.1 17:27:29 10° S 17:33:04 86° W 17:37:14 18° N
Cosmos 2228 Rocket 3.0 17:28:40 10° S 17:33:12 86° W 17:34:29 47° N
H-2A R/B 1.9 17:35:17 62° E 17:35:40 64° ENE 17:40:45 10° N
USA 267 3.3 17:34:10 46° E 17:35:59 61° NNE 17:42:25 10° NW
Cosmos 1812 3.0 17:33:13 10° SSW 17:36:35 63° SW 17:36:35 63° SW
Cosmos 1821 Rocket 4.1 17:31:46 10° NNW 17:38:01 77° W 17:44:20 10° S
Cosmos 1939 Rocket 4.4 17:34:54 10° SSW 17:38:29 36° W 17:42:09 10° NNW
CZ-4 R/B 1.9 17:41:27 52° NW 17:41:27 52° NW 17:44:39 10° NNW
Meteor 1-11 Rocket 3.6 17:35:25 10° N 17:41:14 78° ENE 17:47:08 10° SSE
PSLV R/B 4.1 17:42:20 69° WSW 17:42:20 69° WSW 17:46:04 10° SSW
NOSS 3-3 (A) 4.4 17:35:08 10° NW 17:42:39 88° NE 17:47:58 25° SE
NOSS 3-3 (C) 4.4 17:35:13 10° NW 17:42:45 88° NE 17:47:58 26° SE
CSL-04 Rocket 3.8 17:44:05 54° NNE 17:44:05 54° NNE 17:48:23 10° N
Cosmos 44 Rocket 3.4 17:38:47 10° NW 17:43:59 80° SW 17:45:08 55° SSE
BREEZE-M DEB (TANK) 4.1 17:41:22 10° SW 17:42:53 20° SSW 17:42:53 20° SSW
Lacrosse 4 Rocket 3.6 17:46:07 10° S 17:46:59 16° S 17:46:59 16° S
Cosmos 1680 Rocket 3.4 17:45:06 10° SSW 17:50:19 83° SE 17:50:19 83° SE
Cosmos 1603 4.2 17:49:23 10° SW 17:54:54 56° WNW 17:56:56 37° N
Cosmos 1943 3.6 17:52:40 10° SW 17:58:15 60° WNW 17:59:58 42° N
Cosmos 2369 Rocket 4.0 17:54:40 10° NW 17:59:32 30° WSW 18:04:21 10° SSW
Okean-O 3.7 17:59:23 10° S 18:03:37 44° W 18:07:53 10° NNW
Cosmos 1371 Rocket 4.5 17:59:45 10° NNW 18:03:40 52° NNW 18:03:40 52° NNW
ARGOS 4.2 18:08:32 35° NNW 18:08:32 35° NNW 18:11:36 10° NNW
CENTAUR R/B 2.5 18:02:36 10° SSW 18:07:44 66° S 18:07:44 66° S
ISS -0.7 18:05:18 10° WNW 18:05:55 15° WNW 18:05:55 15° WNW
Cosmos 2112 Rocket 4.5 18:05:42 10° SSW 18:09:53 56° SW 18:09:53 56° SW
Cosmos 2056 Rocket 4.3 18:05:57 10° NNW 18:09:29 43° NNW 18:09:29 43° NNW
NOSS 3-2 (C) 3.7 18:10:58 10° SSW 18:15:09 53° SSW 18:15:09 53° SSW
Meteor 1-27 Rocket 4.4 18:16:18 10° SSW 18:20:11 46° SW 18:20:11 46° SW
NOSS 3-2 (A) 4.2 18:36:36 10° WSW 18:41:27 48° WNW 18:41:27 48° WNW
USA 215 3.6 18:46:42 61° W 18:46:42 61° W 18:52:11 10° WSW
H-2A R/B 4.5 19:15:56 19° W 19:15:56 19° W 19:19:06 10° NW
USA 267 4.5 19:21:32 36° W 19:21:32 36° W 19:25:28 10° WNW
